Location: N�rnberg
(49.4471°N, 11.0632°E)
Time: 15:36:56
(UTC+01:00)

ARIANE 6 FM1 Upper Stage - Pass Details

Date: 09 February 2026
Orbit: 523 x 607 km, 62.0° (Epoch: 7 March)

Event Time Altitude Azimuth Distance (km) Brightness Sun altitude
Rises 20:15:43 0° 317° (NW) 2,663 6.9 -28.1°
Reaches altitude 10° 20:18:03 10° 326° (NNW) 1,770 5.7 -28.4°
Enters shadow 20:19:19 18° 337° (NNW) 1,333 4.9 -28.6°
